Dewpoint
53 53 53 53 53 53 53 53 53 54 54 54 55 55 55 55 56 56 56 56 56 57 56 56 56 56 56 55 56 56 56 54 52 44 44 34 42 57 67 66 62 73 76 70 70 68 66 65 65 66 64 63 63 63 64 65 66 64 61 58 56 55 53 52 47 44 44 43 52 56 57 57 57 59 61 62 61 61 61 61 63 64 63 64 66 67 67 68
53 53 53 52 53 53 53 53 53 54 54 54 54 55 55 55 55 55 56 56 56 56 56 55 55 56 55 56 55 56 55 54 47 44 41 42 61 59 70 68 65 76 72 68 66 65 64 63 64 64 64 62 64 61 64 63 66 62 59 58 53 56 53 57 55 50 45 44 50 55 57 56 57 59 61 58 60 60 60 61 62 64 65 66 67 67 67 68
53 53 53 54 53 53 53 53 53 53 54 54 55 55 55 55 55 55 56 56 56 56 56 55 55 55 55 56 56 57 55 49 45 35 28 64 66 61 68 71 67 76 60 62 63 64 62 63 64 63 62 61 63 61 63 62 65 63 59 55 55 56 56 56 53 52 47 46 52 55 57 57 58 59 61 57 59 60 59 61 62 62 63 65 66 67 67 66
53 53 53 53 53 53 53 53 53 54 53 54 54 54 55 55 55 55 55 55 56 56 55 55 55 55 55 55 56 55 52 50 26 18 32 59 72 66 67 70 70 72 58 63 63 62 63 64 64 63 62 60 62 62 61 62 61 61 60 56 55 56 56 56 57 55 52 50 50 54 57 56 59 59 59 58 59 59 59 61 61 62 64 64 66 66 66 65
52 52 53 53 53 53 52 53 53 53 53 54 54 55 55 55 55 55 55 55 55 55 55 55 55 55 55 56 56 55 50 20 10 18 47 68 72 72 66 66 75 66 60 63 63 62 62 63 63 61 60 58 60 60 60 61 61 63 59 59 59 56 53 53 52 51 51 48 48 55 55 55 59 59 58 58 55 56 58 61 61 63 64 65 65 66 66 65
52 52 52 52 52 52 52 52 53 53 54 54 54 54 55 55 55 54 54 55 54 55 55 55 55 55 55 56 54 55 27 7 18 21 63 69 72 72 67 69 75 63 61 61 60 60 61 62 61 60 58 58 58 57 58 61 62 54 57 60 60 59 57 58 54 51 46 46 51 54 55 58 58 57 58 58 55 55 59 61 62 64 65 66 65 66 65 65
52 52 52 52 52 52 52 52 53 53 53 54 54 54 55 54 54 54 54 55 55 55 55 55 55 55 55 56 53 52 33 14 25 27 72 72 72 73 69 73 73 60 59 58 59 59 59 61 58 57 57 56 56 57 55 59 61 57 53 55 57 60 59 59 57 56 52 49 48 51 57 56 57 56 58 58 56 58 58 62 63 66 66 66 66 66 65 65
52 51 51 51 52 52 52 52 53 53 53 53 54 54 54 54 53 54 54 55 55 55 55 55 55 55 55 51 47 30 31 21 26 22 45 76 73 73 69 67 61 58 55 55 58 57 59 58 54 57 55 52 51 55 54 54 57 57 55 55 54 53 53 53 52 51 49 47 47 55 55 54 57 56 58 58 57 59 60 63 65 66 66 66 66 65 65 65
51 51 51 51 51 52 52 52 53 53 53 53 54 54 54 54 54 54 54 54 55 54 55 55 55 54 55 54 32 6 5 21 19 21 48 67 68 66 65 63 59 55 53 55 56 56 57 57 54 54 49 52 49 50 53 50 46 55 55 54 51 49 49 49 49 49 48 47 47 52 51 53 56 57 56 57 58 61 63 64 65 66 66 65 65 66 66 66
51 51 51 51 51 51 52 52 53 53 53 53 54 54 54 54 54 54 55 55 55 55 54 54 54 54 52 47 39 6 7 15 31 59 64 66 66 65 62 58 57 53 51 53 53 56 53 56 54 54 50 51 47 44 48 48 37 45 49 52 50 48 46 47 46 44 46 45 43 45 47 51 57 55 51 57 59 62 63 64 65 65 65 65 65 66 66 65
50 50 51 51 51 51 52 52 52 52 53 53 53 53 54 54 54 54 54 55 55 55 55 55 55 54 49 53 18 7 15 34 63 64 64 63 62 60 57 57 55 51 50 52 51 54 51 56 55 49 43 42 47 42 42 45 43 41 42 42 44 44 42 41 40 39 36 32 36 40 38 51 56 55 50 56 61 62 63 64 65 65 65 65 66 66 67 67
50 50 51 51 51 51 52 52 52 53 53 53 53 53 54 54 53 53 54 55 56 56 55 55 55 53 50 46 24 8 21 52 63 62 61 59 55 55 56 56 53 50 51 50 51 53 50 54 52 44 32 40 36 36 38 39 39 39 38 36 34 24 22 22 22 23 25 23 28 35 46 50 54 52 54 59 61 62 63 64 64 65 65 66 66 65 66 66
50 50 50 51 51 51 51 52 52 52 52 53 53 53 53 53 53 54 56 58 57 55 55 55 55 53 47 23 30 29 22 34 27 25 25 24 25 56 55 53 50 50 50 49 50 52 51 53 50 43 39 34 37 30 35 36 37 35 32 31 32 32 31 32 24 22 20 20 34 37 28 38 50 52 56 61 61 61 63 63 64 64 65 65 65 65 66 66
50 51 51 51 51 51 51 52 52 52 52 53 53 53 52 52 53 56 57 56 56 54 55 57 53 52 45 13 16 28 29 27 25 25 24 26 23 26 57 53 50 48 49 47 47 50 43 47 48 43 39 35 32 34 33 28 27 31 31 23 30 29 28 22 25 33 20 36 39 33 24 23 46 51 57 61 61 61 61 63 63 64 65 65 65 65 65 66
51 51 51 51 50 50 51 52 52 52 52 52 52 52 51 51 54 57 56 55 55 56 56 57 52 47 30 22 30 34 51 31 26 21 24 23 22 39 53 55 50 48 46 40 41 47 42 44 43 40 36 37 34 31 28 27 24 27 29 28 23 25 27 22 21 28 25 39 42 35 30 28 41 51 59 60 61 60 60 62 63 63 64 64 65 65 64 64
51 51 51 51 50 51 51 51 52 52 52 52 51 51 52 53 57 57 55 55 57 57 54 51 52 51 38 23 18 55 40 30 25 27 28 21 21 16 48 56 52 50 46 42 43 45 44 39 42 40 34 32 30 27 23 18 18 21 26 29 24 20 24 21 21 31 32 39 44 38 28 37 39 50 58 60 60 60 60 62 63 63 64 64 64 65 64 64
51 51 51 51 51 51 52 52 52 52 51 51 50 50 51 53 57 57 57 57 56 55 53 40 51 55 16 15 27 21 21 35 41 40 32 26 20 36 52 54 52 50 47 43 42 43 42 39 39 37 36 29 27 25 19 16 16 21 24 28 29 26 23 22 21 27 35 34 39 42 36 35 45 54 58 60 60 59 60 62 62 63 64 64 64 64 64 65
51 51 51 51 51 52 52 52 52 52 51 50 50 49 48 54 57 58 57 56 55 55 55 53 48 42 29 32 20 20 31 34 40 40 41 34 24 44 45 41 51 48 44 41 39 35 40 37 34 28 31 29 28 23 15 13 13 17 24 26 26 24 23 24 22 25 36 35 31 39 41 38 49 53 57 59 60 59 59 61 62 63 63 64 64 64 64 65
51 51 51 51 51 52 51 52 52 50 50 51 49 49 51 54 53 54 53 55 37 37 33 44 41 26 17 21 28 33 32 31 34 35 35 33 26 37 39 43 48 43 37 35 36 34 35 31 33 31 26 27 26 23 15 20 17 17 24 27 27 25 24 22 19 19 24 24 32 34 36 38 46 52 56 58 60 59 59 61 62 62 63 64 64 64 64 65
51 51 50 51 51 51 52 51 51 50 50 47 42 43 37 26 28 32 44 33 27 28 29 33 44 42 39 36 34 33 34 35 29 33 36 36 27 28 33 41 42 39 36 29 33 31 33 28 28 27 25 28 27 26 21 23 23 26 26 28 29 28 27 20 19 19 24 25 26 29 33 34 38 50 55 57 59 59 59 61 62 62 63 63 63 63 64 65
51 50 51 51 51 51 51 51 50 50 51 45 41 31 24 26 22 20 28 30 30 30 28 28 32 37 36 34 33 31 29 28 36 35 38 39 29 25 27 34 33 31 32 31 32 33 30 26 25 26 27 29 29 28 25 22 25 24 24 25 24 22 23 22 22 22 21 22 24 37 36 36 38 50 54 57 58 58 58 60 61 62 63 63 64 64 64 65
50 51 51 51 51 51 51 50 50 50 50 44 39 30 32 33 33 33 33 28 30 29 29 29 29 28 30 32 32 32 31 28 27 27 29 33 25 24 24 27 28 23 31 30 30 31 30 27 25 28 28 28 30 29 27 22 21 24 22 24 25 25 25 25 24 22 22 28 25 26 30 31 37 47 54 57 57 58 58 59 60 62 62 63 63 64 64 65
51 50 51 51 51 50 50 50 49 49 44 41 37 33 32 35 38 39 37 34 32 33 30 28 27 27 27 28 28 30 27 27 24 24 25 33 27 28 25 22 24 25 30 28 27 29 29 28 29 29 28 27 27 29 28 26 23 20 19 21 21 24 25 25 20 20 19 21 20 39 28 31 44 49 53 56 57 58 59 59 60 61 62 63 63 63 64 64
51 51 50 51 51 50 50 49 48 44 42 40 37 33 36 37 39 39 37 31 26 25 30 30 28 27 26 25 27 28 26 25 26 24 32 32 30 30 23 20 21 25 27 28 27 27 26 22 31 29 28 27 26 25 27 26 24 23 21 17 17 22 24 25 23 21 20 21 22 25 28 28 39 44 50 55 57 58 58 59 60 61 62 63 63 64 64 64
51 50 51 51 50 50 48 48 40 40 42 37 36 34 37 39 41 40 38 34 31 30 30 28 28 26 25 28 29 26 27 26 26 25 33 28 30 28 27 22 21 20 24 29 28 28 27 26 28 29 28 28 26 24 24 24 21 22 24 21 18 22 23 21 20 20 22 22 22 21 23 26 40 40 42 52 56 57 58 58 59 60 61 62 62 63 64 64
51 51 51 51 51 50 49 37 37 41 41 31 32 36 38 39 41 42 37 24 17 18 24 21 27 21 26 26 28 27 25 23 26 26 32 27 32 31 24 22 21 18 23 27 27 28 28 23 25 28 27 27 27 24 23 24 19 20 20 23 22 22 22 21 21 21 23 24 26 28 21 23 39 41 46 53 54 55 57 57 57 59 60 60 61 62 62 63
51 50 51 51 50 49 41 34 41 42 31 32 35 37 39 40 45 42 30 20 21 23 20 21 21 20 24 25 27 26 18 19 27 27 29 35 28 31 26 24 21 21 24 25 27 25 26 23 21 24 26 26 26 25 22 22 19 18 22 21 21 21 21 21 21 22 24 23 22 23 22 26 27 29 44 51 53 55 56 56 57 57 60 59 60 60 62 62
51 51 51 50 49 49 45 43 43 39 34 35 37 39 41 43 45 43 27 15 11 24 17 19 19 22 21 28 27 22 18 12 18 25 26 32 30 27 28 24 21 19 23 24 20 24 26 23 22 20 22 23 23 24 22 22 20 19 21 20 20 20 21 21 21 22 23 23 24 23 24 27 25 35 46 49 51 54 55 56 57 57 58 59 60 60 61 61
51 51 51 50 49 48 48 44 43 39 36 37 39 40 42 45 43 31 21 5 18 15 18 15 19 17 25 28 27 27 24 18 6 20 26 32 29 28 26 26 22 20 22 22 16 21 24 25 24 21 20 20 21 20 20 21 20 20 20 20 21 20 20 20 19 20 23 23 22 23 21 22 22 27 33 50 47 49 52 55 56 57 58 58 59 60 60 61
51 51 50 50 47 44 44 44 43 41 40 40 40 42 44 44 35 16 17 12 21 15 18 16 16 16 23 24 24 25 24 22 14 21 26 28 29 27 25 25 22 20 20 22 20 20 21 29 28 23 21 20 21 20 20 20 20 18 18 17 16 16 19 24 23 25 26 21 22 20 19 17 18 23 26 41 44 46 48 54 56 57 57 58 59 59 59 60
50 50 50 49 44 42 44 37 32 35 39 42 42 44 44 32 22 19 15 11 5 18 18 18 17 18 17 18 14 17 21 20 17 23 25 26 28 26 23 23 22 20 20 20 19 19 20 25 24 23 24 22 21 19 20 20 19 18 17 16 17 22 23 23 21 26 18 16 21 18 17 16 17 22 25 36 46 45 47 48 54 55 56 57 58 58 58 59
50 49 49 48 46 46 41 33 35 39 43 43 43 42 27 17 18 16 13 21 10 19 18 20 19 22 21 17 15 13 11 12 13 22 22 23 26 24 23 24 23 22 20 19 18 19 18 20 23 23 28 22 21 19 19 19 19 17 16 18 16 25 19 17 22 17 16 17 18 14 15 17 20 30 24 36 37 44 47 45 49 53 55 57 57 58 58 59
49 48 48 47 45 43 43 44 44 44 43 41 42 37 18 16 16 14 13 16 17 26 23 25 22 25 23 20 14 15 13 10 12 19 22 22 25 24 24 24 24 23 21 20 18 18 17 19 20 20 22 24 20 17 17 17 17 16 16 18 17 17 14 14 16 18 17 18 18 14 17 14 19 21 25 23 38 42 46 49 49 52 55 57 57 58 57 58
48 48 46 44 44 43 43 46 45 43 38 42 37 17 20 13 13 28 20 28 26 29 28 25 28 26 19 15 16 19 8 15 8 10 19 19 22 23 23 25 23 22 22 20 18 18 17 17 17 19 18 22 20 18 17 17 18 16 16 16 17 18 13 13 13 11 8 13 15 16 14 19 15 18 22 21 27 39 42 46 50 52 54 57 57 57 57 58
48 46 44 43 42 41 42 42 43 38 39 40 20 19 9 12 14 18 23 29 29 29 28 29 28 20 16 14 20 21 20 16 20 14 12 15 18 22 22 23 23 23 21 19 20 20 18 19 21 19 20 21 19 19 19 18 17 17 18 18 20 19 21 8 15 9 8 8 14 21 14 25 17 38 37 35 21 29 41 45 48 51 51 53 54 55 56 56
45 42 42 41 41 40 40 37 36 38 40 32 15 17 9 19 15 28 28 30 29 27 26 28 19 16 16 17 20 22 24 20 19 16 8 11 14 18 21 22 22 23 21 20 22 18 20 18 20 20 22 20 19 20 19 18 15 17 17 17 18 19 13 17 23 23 19 15 14 25 19 19 28 23 24 32 31 29 36 40 42 46 48 52 52 53 55 56
42 42 38 40 40 36 37 37 38 38 39 28 15 11 21 24 26 29 32 30 28 28 27 24 19 16 21 21 20 22 21 21 19 17 10 14 16 26 26 26 26 22 23 25 22 22 20 20 20 19 19 22 20 20 20 18 20 16 15 16 18 19 18 20 10 26 13 7 20 15 13 13 16 14 30 32 32 28 32 38 38 44 47 49 49 52 54 55
42 41 42 43 37 34 36 39 39 41 36 24 17 20 31 23 30 30 31 29 27 28 25 25 22 25 24 24 20 23 22 19 19 20 16 17 18 28 27 28 28 29 30 30 24 24 21 19 19 19 19 21 22 20 20 19 18 17 15 16 15 18 19 32 22 14 11 11 13 18 17 13 16 18 30 35 32 31 34 39 40 41 44 45 47 50 54 55
41 40 28 29 32 34 38 41 42 41 33 21 20 18 29 30 29 30 31 29 28 29 23 24 27 25 27 24 24 24 22 19 20 20 19 19 18 26 26 27 27 29 31 32 22 21 21 18 19 20 19 20 21 21 20 18 17 15 17 16 20 19 20 25 20 23 21 13 14 10 16 9 21 14 24 33 36 37 33 37 40 39 42 45 47 46 50 54
38 34 25 30 33 36 40 40 39 36 28 23 29 30 30 26 28 30 30 30 27 26 27 26 27 25 26 25 25 23 23 21 19 18 19 21 21 27 26 26 26 28 33 32 22 20 21 27 20 16 18 19 19 21 19 20 18 16 15 17 16 17 19 19 19 17 16 18 17 14 11 17 28 29 18 26 41 41 39 39 44 43 43 43 46 48 50 52
40 36 30 33 33 38 38 31 29 30 29 28 28 29 28 28 30 29 30 30 28 28 27 26 26 24 25 26 24 24 23 21 19 17 16 19 26 22 26 25 27 31 33 29 26 31 24 21 20 18 16 18 18 20 19 20 20 18 17 17 16 16 16 16 17 15 14 16 19 14 11 23 17 33 34 23 41 40 42 42 43 43 41 46 46 48 52 51
35 27 24 32 36 38 34 24 28 30 28 27 26 28 28 35 29 28 29 30 30 28 27 26 25 26 26 25 25 24 23 21 20 18 20 19 28 26 26 27 28 30 36 37 38 31 38 35 23 19 16 16 17 19 20 20 21 20 18 17 16 17 18 18 17 19 15 12 16 21 16 19 29 38 40 36 36 36 41 41 41 41 44 44 46 44 51 55
34 32 36 38 39 37 32 25 28 29 28 28 30 28 28 27 28 28 29 30 29 30 28 26 24 24 24 26 26 25 27 25 26 23 27 28 28 27 27 26 27 35 38 35 37 33 39 36 24 20 22 19 18 17 18 18 18 19 18 18 15 15 15 16 18 30 17 19 17 18 19 20 25 49 42 38 48 42 46 43 46 42 41 44 46 47 54 56
36 35 35 38 39 36 26 24 24 26 28 28 29 28 27 27 27 29 30 30 30 30 29 29 27 28 27 28 27 27 27 22 28 27 27 28 27 28 27 27 27 32 34 33 34 32 30 35 30 24 22 21 18 19 15 17 17 18 17 18 16 16 16 19 28 36 21 18 15 17 15 18 26 47 46 45 39 35 35 37 43 44 47 44 45 50 54 59
37 36 38 37 36 32 28 29 28 27 27 28 28 25 25 25 28 29 29 30 33 32 31 28 29 29 29 29 27 27 28 27 27 27 27 25 25 28 27 27 27 32 33 35 41 34 33 30 31 22 22 20 20 19 18 18 16 17 18 17 18 15 17 19 19 29 19 29 27 18 17 27 32 40 40 41 41 45 43 40 38 42 48 47 48 48 57 58
33 29 30 30 33 31 32 32 30 30 28 28 27 24 26 25 27 28 29 29 33 29 31 33 31 30 30 29 28 27 26 27 25 26 27 25 27 27 28 28 27 31 40 39 39 34 35 36 33 31 28 25 29 34 28 30 26 16 15 18 17 16 15 18 23 25 19 34 23 26 27 23 25 23 34 34 39 37 37 43 43 45 46 49 54 55 54 59
37 30 30 29 30 33 29 30 29 30 29 30 27 27 25 27 27 27 30 27 29 29 31 33 33 31 32 30 30 27 26 26 27 28 26 27 29 28 29 27 27 35 40 32 35 34 36 29 30 34 34 32 28 29 27 28 27 27 24 17 16 17 17 17 19 21 43 25 19 28 39 24 20 31 39 45 42 45 44 46 44 46 51 50 51 56 56 54
31 32 33 36 31 28 28 28 30 31 30 30 28 30 27 26 26 26 27 28 28 29 31 33 33 35 32 32 31 27 28 27 28 28 28 30 31 30 26 27 28 34 33 24 28 32 31 25 32 30 28 27 26 26 27 27 28 27 25 24 21 17 18 18 22 23 33 22 20 40 43 32 26 19 29 41 48 47 38 43 43 43 43 52 54 50 49 50
35 35 34 38 33 31 31 32 33 31 30 29 31 30 27 26 25 27 27 27 28 28 33 28 30 33 33 33 32 31 31 26 26 31 30 32 31 31 26 26 26 27 27 26 25 33 32 28 33 28 27 27 26 26 28 27 26 26 25 25 24 22 19 18 18 18 23 34 28 43 44 28 22 21 20 29 43 42 44 47 44 43 35 49 49 52 43 44
34 35 34 36 36 33 32 33 32 30 27 30 28 27 29 27 26 27 28 28 27 27 33 30 30 31 31 32 34 32 31 32 31 29 31 33 31 32 30 29 27 28 28 25 26 31 26 26 32 26 29 27 25 28 28 26 27 26 25 25 24 22 22 21 18 18 23 22 20 28 37 34 28 35 26 32 47 40 39 34 31 42 44 35 40 41 46 47
39 42 42 37 33 31 33 30 29 29 27 27 27 27 28 27 27 29 29 30 29 29 34 31 31 31 31 31 32 31 32 33 33 33 33 33 31 32 31 30 30 30 29 27 28 29 26 25 28 29 26 24 25 26 25 26 26 25 25 25 23 22 22 21 22 19 22 28 30 24 34 31 33 38 38 43 41 39 38 43 43 44 38 46 47 44 47 52
45 46 43 40 32 33 30 30 31 29 24 27 29 28 28 27 28 30 29 30 33 33 34 32 32 31 30 31 30 32 34 34 33 32 33 32 32 32 32 32 32 31 30 29 31 26 25 26 25 26 25 24 23 26 26 27 25 20 20 20 22 24 24 22 22 22 21 20 25 27 26 31 35 41 36 35 30 36 40 38 43 44 57 52 52 53 52 53